When you browse on this site, cookies collect data to enhance your experience and personalize the content and advertising you see.
Visit our Privacy Policy to learn more. By continuing to use the site, you agree to this use of cookies and data.

Previsão horária em Nyíregyháza

Hoje, 12 Julho, Domingo

Tempo Temperatura Precipitação Vento Pressão Humidade
00:00 +12°C° 0.5 mm 7 m/s 753 mmHg 90%
01:00 +12°C° 0 mm 7 m/s 753 mmHg 91%
02:00 +12°C° 0.9 mm 7 m/s 753 mmHg 91%
03:00 +12°C° 0.9 mm 7 m/s 753 mmHg 91%
04:00 +12°C° 0.9 mm 7 m/s 753 mmHg 91%
05:00 +12°C° 0.6 mm 7 m/s 753 mmHg 91%
06:00 +11°C° 0.6 mm 7 m/s 754 mmHg 90%
07:00 +11°C° 0 mm 7 m/s 754 mmHg 91%
08:00 +12°C° 0 mm 7 m/s 755 mmHg 87%
09:00 +14°C° 0 mm 7 m/s 755 mmHg 83%
10:00 +14°C° 0 mm 7 m/s 755 mmHg 80%
11:00 +16°C° 0 mm 8 m/s 756 mmHg 76%
12:00 +17°C° 0 mm 8 m/s 756 mmHg 73%
13:00 +18°C° 0 mm 8 m/s 756 mmHg 69%
14:00 +18°C° 0 mm 8 m/s 756 mmHg 68%
15:00 +18°C° 0 mm 7 m/s 756 mmHg 66%
16:00 +18°C° 0 mm 7 m/s 756 mmHg 65%
17:00 +17°C° 0 mm 6 m/s 756 mmHg 68%
18:00 +17°C° 0 mm 4 m/s 756 mmHg 72%
19:00 +16°C° 0 mm 3 m/s 756 mmHg 76%
20:00 +14°C° 0 mm 3 m/s 756 mmHg 77%
21:00 +13°C° 0 mm 3 m/s 756 mmHg 78%
22:00 +13°C° 0 mm 3 m/s 757 mmHg 79%
23:00 +12°C° 0 mm 3 m/s 757 mmHg 80%

Amanhã, 13 Julho, Segunda-feira

Tempo Temperatura Precipitação Vento Pressão Humidade
00:00 +12°C° 0 mm 3 m/s 757 mmHg 82%
01:00 +12°C° 0 mm 3 m/s 757 mmHg 83%
02:00 +12°C° 0 mm 3 m/s 757 mmHg 84%
03:00 +11°C° 0 mm 3 m/s 757 mmHg 85%
04:00 +11°C° 0 mm 3 m/s 756 mmHg 86%
05:00 +13°C° 0 mm 3 m/s 756 mmHg 82%
06:00 +14°C° 0 mm 4 m/s 757 mmHg 78%
07:00 +16°C° 0 mm 5 m/s 757 mmHg 75%
08:00 +17°C° 0 mm 5 m/s 756 mmHg 70%
09:00 +19°C° 0 mm 5 m/s 756 mmHg 66%
10:00 +20°C° 0 mm 5 m/s 756 mmHg 62%
11:00 +21°C° 0 mm 5 m/s 756 mmHg 59%
12:00 +21°C° 0 mm 4 m/s 756 mmHg 56%
13:00 +22°C° 0 mm 4 m/s 755 mmHg 53%
14:00 +22°C° 0 mm 4 m/s 755 mmHg 53%
15:00 +22°C° 0 mm 4 m/s 755 mmHg 54%
16:00 +22°C° 0 mm 4 m/s 754 mmHg 54%
17:00 +21°C° 0 mm 3 m/s 754 mmHg 60%
18:00 +19°C° 0 mm 3 m/s 754 mmHg 67%
19:00 +18°C° 0 mm 3 m/s 754 mmHg 73%
20:00 +17°C° 0 mm 3 m/s 754 mmHg 74%
21:00 +16°C° 0 mm 3 m/s 754 mmHg 75%
22:00 +14°C° 0 mm 3 m/s 755 mmHg 76%
23:00 +13°C° 0 mm 3 m/s 755 mmHg 79%

Depois de amanhã, 14 Julho, Terça-feira

Tempo Temperatura Precipitação Vento Pressão Humidade
00:00 +13°C° 0 mm 3 m/s 755 mmHg 81%
01:00 +12°C° 0 mm 3 m/s 755 mmHg 84%
02:00 +12°C° 0 mm 3 m/s 754 mmHg 86%
03:00 +12°C° 0 mm 3 m/s 754 mmHg 87%
04:00 +11°C° 0 mm 3 m/s 754 mmHg 89%
05:00 +13°C° 0 mm 3 m/s 754 mmHg 85%
06:00 +14°C° 0 mm 3 m/s 754 mmHg 81%
07:00 +17°C° 0 mm 3 m/s 754 mmHg 77%
08:00 +18°C° 0 mm 3 m/s 754 mmHg 72%
09:00 +20°C° 0 mm 3 m/s 754 mmHg 67%
10:00 +21°C° 0 mm 3 m/s 753 mmHg 62%
11:00 +22°C° 0 mm 3 m/s 753 mmHg 59%
12:00 +24°C° 0 mm 2 m/s 753 mmHg 56%
13:00 +24°C° 0 mm 2 m/s 753 mmHg 52%
14:00 +24°C° 0 mm 2 m/s 752 mmHg 52%
15:00 +24°C° 0 mm 1 m/s 752 mmHg 52%
16:00 +25°C° 0 mm 1 m/s 752 mmHg 51%
17:00 +23°C° 0 mm 1 m/s 752 mmHg 56%
18:00 +22°C° 0 mm 1 m/s 752 mmHg 62%
19:00 +18°C° 0 mm 0 m/s 752 mmHg 67%
20:00 +17°C° 0 mm 0 m/s 752 mmHg 69%
21:00 +16°C° 0 mm 0 m/s 752 mmHg 71%
22:00 +16°C° 0 mm 0 m/s 752 mmHg 73%
23:00 +15°C° 0 mm 0 m/s 752 mmHg 75%

15 Julho, Quarta-feira

Tempo Temperatura Precipitação Vento Pressão Humidade
00:00 +15°C° 0 mm 0 m/s 752 mmHg 77%
01:00 +14°C° 0 mm 0 m/s 752 mmHg 80%
02:00 +15°C° 0 mm 1 m/s 752 mmHg 81%
03:00 +15°C° 0 mm 1 m/s 752 mmHg 82%
04:00 +14°C° 0 mm 1 m/s 752 mmHg 84%
05:00 +16°C° 0 mm 1 m/s 752 mmHg 80%
06:00 +18°C° 0 mm 1 m/s 752 mmHg 77%
07:00 +20°C° 0 mm 1 m/s 752 mmHg 73%
08:00 +21°C° 0 mm 1 m/s 752 mmHg 69%
09:00 +23°C° 0 mm 1 m/s 752 mmHg 64%
10:00 +24°C° 0 mm 1 m/s 752 mmHg 59%
11:00 +25°C° 0 mm 1 m/s 751 mmHg 56%
12:00 +26°C° 0 mm 1 m/s 751 mmHg 52%
13:00 +26°C° 0 mm 1 m/s 751 mmHg 48%
14:00 +26°C° 0 mm 1 m/s 751 mmHg 49%
15:00 +26°C° 0 mm 2 m/s 751 mmHg 49%
16:00 +26°C° 0 mm 2 m/s 750 mmHg 50%
17:00 +25°C° 0 mm 1 m/s 750 mmHg 55%
18:00 +23°C° 0 mm 1 m/s 750 mmHg 60%
19:00 +22°C° 0 mm 1 m/s 750 mmHg 65%
20:00 +21°C° 0 mm 1 m/s 750 mmHg 65%
21:00 +20°C° 0 mm 1 m/s 751 mmHg 66%
22:00 +19°C° 0 mm 1 m/s 751 mmHg 66%
23:00 +19°C° 0 mm 1 m/s 751 mmHg 68%

16 Julho, Quinta-feira

Tempo Temperatura Precipitação Vento Pressão Humidade
00:00 +18°C° 0 mm 1 m/s 750 mmHg 70%
01:00 +18°C° 0 mm 1 m/s 750 mmHg 71%
02:00 +18°C° 0 mm 1 m/s 750 mmHg 73%
03:00 +16°C° 0 mm 2 m/s 750 mmHg 74%
04:00 +16°C° 0 mm 2 m/s 750 mmHg 76%
05:00 +17°C° 0 mm 2 m/s 750 mmHg 75%
06:00 +18°C° 0 mm 2 m/s 750 mmHg 74%
07:00 +19°C° 0 mm 2 m/s 750 mmHg 74%
08:00 +20°C° 0.1 mm 2 m/s 750 mmHg 72%
09:00 +21°C° 0.1 mm 2 m/s 750 mmHg 70%
10:00 +23°C° 0.1 mm 2 m/s 750 mmHg 69%
11:00 +23°C° 0.2 mm 2 m/s 750 mmHg 70%
12:00 +21°C° 0.2 mm 2 m/s 750 mmHg 70%
13:00 +21°C° 0.2 mm 2 m/s 750 mmHg 71%
14:00 +20°C° 0 mm 2 m/s 750 mmHg 74%
15:00 +19°C° 0 mm 3 m/s 749 mmHg 77%
16:00 +19°C° 0 mm 3 m/s 749 mmHg 80%
17:00 +18°C° 0.1 mm 3 m/s 749 mmHg 83%
18:00 +17°C° 0.1 mm 2 m/s 749 mmHg 86%
19:00 +16°C° 0.1 mm 2 m/s 749 mmHg 89%
20:00 +16°C° 0 mm 2 m/s 749 mmHg 91%
21:00 +15°C° 0 mm 2 m/s 749 mmHg 92%
22:00 +14°C° 0 mm 3 m/s 749 mmHg 94%
23:00 +15°C° 0 mm 2 m/s 749 mmHg 95%

17 Julho, Sexta-feira

Tempo Temperatura Precipitação Vento Pressão Humidade
00:00 +14°C° 0 mm 2 m/s 749 mmHg 95%
01:00 +14°C° 0 mm 2 m/s 749 mmHg 96%
02:00 +14°C° 0 mm 2 m/s 749 mmHg 96%
03:00 +13°C° 0 mm 2 m/s 749 mmHg 97%
04:00 +13°C° 0 mm 2 m/s 749 mmHg 97%
05:00 +14°C° 0 mm 2 m/s 749 mmHg 94%
06:00 +15°C° 0 mm 2 m/s 749 mmHg 90%
07:00 +16°C° 0 mm 2 m/s 748 mmHg 87%
08:00 +17°C° 0.1 mm 2 m/s 749 mmHg 82%
09:00 +18°C° 0.1 mm 2 m/s 749 mmHg 77%
10:00 +20°C° 0.1 mm 2 m/s 749 mmHg 71%
11:00 +20°C° 0.6 mm 3 m/s 748 mmHg 72%
12:00 +20°C° 0.6 mm 3 m/s 748 mmHg 72%
13:00 +20°C° 0.6 mm 3 m/s 748 mmHg 72%
14:00 +20°C° 0.5 mm 3 m/s 748 mmHg 73%
15:00 +20°C° 0.5 mm 3 m/s 748 mmHg 73%
16:00 +20°C° 0.5 mm 3 m/s 748 mmHg 74%
17:00 +19°C° 0.1 mm 3 m/s 749 mmHg 78%
18:00 +18°C° 0.1 mm 3 m/s 749 mmHg 83%
19:00 +16°C° 0.1 mm 2 m/s 749 mmHg 87%
20:00 +16°C° 0 mm 2 m/s 749 mmHg 87%
21:00 +15°C° 0 mm 2 m/s 750 mmHg 88%
22:00 +14°C° 0 mm 2 m/s 750 mmHg 88%
23:00 +14°C° 0 mm 2 m/s 750 mmHg 88%
Mostrar mais